Home > Weather > Shiprock > Past weeks

Flag for USA Weather for the Past 2 Weeks in Shiprock, New Mexico, USA

Now
37 °F

Clear.


Feels Like: 30 °F
Forecast: 37 / 63 °F
Wind: 9 mph from East

Location: Four Corners Regional Airport

Current Time: May 2, 2016 at 6:55:01 AM

Latest Report: May 2, 2016 at 5:53 AM


Visibility: 10 mi

Pressure: 30.22 "Hg (25.12 "Hg at 1492m altitude)

Humidity: 86%

Dew Point: 33 °F

Location of ShiprockLocation

Historic Weather in Shiprock — Graph

°F

Shiprock Temperature Yesterday

Maximum temperature yesterday: 50 °F (at 3:53 PM)
Minimum temperature yesterday: 39 °F (at 5:53 AM)
Average temperature yesterday: 44 °F

High & Low Weather Summary for the Past Weeks

 TemperatureHumidityPressure
High81 °F (Apr 22, 2:53 PM)97% (May 1, 6:53 AM)30.22 "Hg (May 1, 6:53 AM)
Low28 °F (Apr 19, 5:53 AM)6% (Apr 22, 5:53 PM)29.46 "Hg (Apr 25, 2:53 PM)
Average51 °F46%29.89 "Hg
* Reported Apr 17 5:53 AM — May 2 5:53 AM, Shiprock, Weather by CustomWeather, © 2016

Note: Actual official high and low records may vary slightly from our data, if they occured in-between our weather recording intervals... More about our weather records

Advertising

Shiprock Weather History for the Previous 24 Hours

Scroll right to see more
 ConditionsComfort  
Time TempWeatherWind HumidityBarometerVisibility
5:53 AM
Mon, May 2
37 °FClear.9 mph86%30.22 "Hg10 mi
4:53 AM37 °FClear.7 mph86%30.21 "Hg10 mi
3:53 AM37 °FClear.6 mph82%30.19 "Hg10 mi
2:53 AM40 °FClear.10 mph73%30.19 "Hg10 mi
1:53 AM41 °FPassing clouds.16 mph74%30.18 "Hg10 mi
12:53 AM43 °FOvercast.12 mph74%30.18 "Hg10 mi
11:53 PM
Sun, May 1
44 °FOvercast.14 mph71%30.19 "Hg10 mi
10:53 PM44 °FOvercast.14 mph71%30.17 "Hg10 mi
9:53 PM44 °FMostly cloudy.9 mph82%30.15 "Hg10 mi
8:53 PM44 °FOvercast.7 mph82%30.12 "Hg10 mi
7:53 PM43 °FMostly cloudy.12 mph86%30.10 "Hg10 mi
6:53 PM44 °FBroken clouds.12 mph85%30.08 "Hg10 mi
5:53 PM47 °FCloudy.7 mph77%30.05 "Hg10 mi
4:53 PM46 °FLight rain. Mostly cloudy.14 mph79%30.02 "Hg10 mi
3:53 PM50 °FBroken clouds.9 mph63%29.99 "Hg10 mi
2:53 PM48 °FMostly cloudy.8 mph71%30.00 "Hg10 mi
1:53 PM46 °FMostly cloudy.14 mph79%30.01 "Hg10 mi
12:53 PM45 °FMostly cloudy.14 mph86%30.01 "Hg10 mi
11:53 AM41 °FLight rain. Mostly cloudy.13 mph89%30.04 "Hg9 mi
10:53 AM41 °FLight rain. Mostly cloudy.16 mph89%30.03 "Hg7 mi
9:53 AM43 °FOvercast.16 mph82%29.99 "Hg10 mi
8:53 AM42 °FLight rain. More clouds than sun.15 mph89%29.96 "Hg10 mi
8:04 AM41 °FLight rain. Mostly cloudy.9 mph86%30.00 "Hg10 mi
7:53 AM41 °FLight rain. Mostly cloudy.13 mph89%29.95 "Hg10 mi
6:53 AM40 °FRain. Fog.No wind97%29.92 "Hg5 mi
Weather by CustomWeather, © 2016

See weather overviewHow to use our weather pages